When you browse on this site, cookies collect data to enhance your experience and personalize the content and advertising you see.
Visit our Privacy Policy to learn more. By continuing to use the site, you agree to this use of cookies and data.
  • In Spain
  • List of Countries
  • For 7 days
  • Water Temperature
  • Satellite Maps
  • Weather Map
  • Weather Widgets
  • user-avatar
    Login

    Hourly Weather Bhopal

    Today, 18 April, Thursday

    Time Temperature Precipitation Wind Pressure Humidity
    00:00 +29°C° 0 mm 2 mps 716 mmHg 23%
    01:00 +28°C° 0 mm 2 mps 715 mmHg 27%
    02:00 +27°C° 0 mm 2 mps 715 mmHg 31%
    03:00 +27°C° 0 mm 2 mps 715 mmHg 34%
    04:00 +26°C° 0 mm 2 mps 715 mmHg 37%
    05:00 +25°C° 0 mm 1 mps 715 mmHg 42%
    06:00 +26°C° 0 mm 2 mps 716 mmHg 39%
    07:00 +28°C° 0 mm 2 mps 716 mmHg 36%
    08:00 +29°C° 0 mm 2 mps 717 mmHg 33%
    09:00 +31°C° 0 mm 2 mps 717 mmHg 29%
    10:00 +32°C° 0 mm 1 mps 717 mmHg 25%
    11:00 +34°C° 0 mm 1 mps 717 mmHg 21%
    12:00 +35°C° 0 mm 2 mps 716 mmHg 19%
    13:00 +36°C° 0 mm 3 mps 716 mmHg 18%
    14:00 +37°C° 0 mm 3 mps 715 mmHg 16%
    15:00 +37°C° 0 mm 4 mps 715 mmHg 16%
    16:00 +37°C° 0 mm 4 mps 714 mmHg 16%
    17:00 +37°C° 0 mm 4 mps 714 mmHg 16%
    18:00 +36°C° 0 mm 4 mps 714 mmHg 17%
    19:00 +35°C° 0 mm 3 mps 714 mmHg 18%
    20:00 +34°C° 0 mm 3 mps 715 mmHg 19%
    21:00 +34°C° 0 mm 3 mps 715 mmHg 21%
    22:00 +33°C° 0 mm 3 mps 715 mmHg 22%
    23:00 +31°C° 0 mm 3 mps 715 mmHg 23%

    Tomorrow, 19 April, Friday

    Time Temperature Precipitation Wind Pressure Humidity
    00:00 +31°C° 0 mm 2 mps 715 mmHg 24%
    01:00 +30°C° 0 mm 2 mps 714 mmHg 25%
    02:00 +29°C° 0 mm 2 mps 714 mmHg 26%
    03:00 +29°C° 0 mm 2 mps 714 mmHg 27%
    04:00 +28°C° 0 mm 2 mps 714 mmHg 28%
    05:00 +28°C° 0 mm 2 mps 714 mmHg 29%
    06:00 +29°C° 0 mm 3 mps 715 mmHg 27%
    07:00 +30°C° 0 mm 3 mps 715 mmHg 25%
    08:00 +33°C° 0 mm 3 mps 716 mmHg 22%
    09:00 +34°C° 0 mm 3 mps 716 mmHg 20%
    10:00 +35°C° 0 mm 3 mps 716 mmHg 18%
    11:00 +36°C° 0 mm 3 mps 716 mmHg 15%
    12:00 +37°C° 0 mm 3 mps 715 mmHg 14%
    13:00 +38°C° 0 mm 4 mps 714 mmHg 12%
    14:00 +40°C° 0 mm 5 mps 714 mmHg 10%
    15:00 +40°C° 0 mm 5 mps 713 mmHg 10%
    16:00 +39°C° 0 mm 5 mps 713 mmHg 10%
    17:00 +39°C° 0 mm 5 mps 713 mmHg 11%
    18:00 +37°C° 0 mm 5 mps 713 mmHg 13%
    19:00 +36°C° 0 mm 5 mps 713 mmHg 15%
    20:00 +34°C° 0 mm 5 mps 714 mmHg 17%
    21:00 +34°C° 0 mm 4 mps 714 mmHg 18%
    22:00 +33°C° 0 mm 4 mps 714 mmHg 20%
    23:00 +32°C° 0 mm 4 mps 714 mmHg 21%

    Day after tomorrow, 20 April, Saturday

    Time Temperature Precipitation Wind Pressure Humidity
    00:00 +32°C° 0 mm 4 mps 713 mmHg 23%
    01:00 +30°C° 0 mm 3 mps 713 mmHg 24%
    02:00 +29°C° 0 mm 3 mps 713 mmHg 25%
    03:00 +29°C° 0 mm 3 mps 713 mmHg 26%
    04:00 +28°C° 0 mm 3 mps 713 mmHg 27%
    05:00 +28°C° 0 mm 3 mps 712 mmHg 28%
    06:00 +29°C° 0 mm 3 mps 713 mmHg 26%
    07:00 +31°C° 0 mm 3 mps 714 mmHg 23%
    08:00 +33°C° 0 mm 4 mps 715 mmHg 21%
    09:00 +34°C° 0 mm 3 mps 715 mmHg 19%
    10:00 +36°C° 0 mm 3 mps 715 mmHg 17%
    11:00 +37°C° 0 mm 2 mps 715 mmHg 15%
    12:00 +38°C° 0 mm 3 mps 714 mmHg 13%
    13:00 +38°C° 0 mm 3 mps 713 mmHg 12%
    14:00 +39°C° 0 mm 3 mps 713 mmHg 10%
    15:00 +40°C° 0 mm 4 mps 712 mmHg 10%
    16:00 +40°C° 0 mm 4 mps 712 mmHg 10%
    17:00 +40°C° 0 mm 4 mps 712 mmHg 10%
    18:00 +38°C° 0 mm 4 mps 712 mmHg 11%
    19:00 +37°C° 0 mm 4 mps 712 mmHg 12%
    20:00 +36°C° 0 mm 3 mps 713 mmHg 13%
    21:00 +35°C° 0 mm 3 mps 713 mmHg 15%
    22:00 +34°C° 0 mm 3 mps 713 mmHg 16%
    23:00 +33°C° 0 mm 3 mps 713 mmHg 17%

    21 April, Sunday

    Time Temperature Precipitation Wind Pressure Humidity
    00:00 +33°C° 0 mm 3 mps 712 mmHg 17%
    01:00 +31°C° 0 mm 3 mps 712 mmHg 17%
    02:00 +30°C° 0 mm 2 mps 711 mmHg 18%
    03:00 +30°C° 0 mm 2 mps 712 mmHg 18%
    04:00 +30°C° 0 mm 3 mps 712 mmHg 19%
    05:00 +29°C° 0 mm 3 mps 712 mmHg 20%
    06:00 +31°C° 0 mm 3 mps 712 mmHg 18%
    07:00 +34°C° 0 mm 3 mps 713 mmHg 16%
    08:00 +36°C° 0 mm 4 mps 714 mmHg 15%
    09:00 +37°C° 0 mm 4 mps 714 mmHg 13%
    10:00 +40°C° 0 mm 4 mps 714 mmHg 12%
    11:00 +41°C° 0 mm 4 mps 714 mmHg 10%
    12:00 +42°C° 0 mm 4 mps 714 mmHg 9%
    13:00 +42°C° 0 mm 4 mps 713 mmHg 8%
    14:00 +43°C° 0 mm 4 mps 712 mmHg 8%
    15:00 +42°C° 0 mm 4 mps 712 mmHg 8%
    16:00 +42°C° 0 mm 4 mps 712 mmHg 8%
    17:00 +42°C° 0 mm 4 mps 711 mmHg 8%
    18:00 +41°C° 0 mm 4 mps 712 mmHg 8%
    19:00 +38°C° 0 mm 3 mps 712 mmHg 9%
    20:00 +37°C° 0 mm 3 mps 712 mmHg 10%
    21:00 +36°C° 0 mm 3 mps 712 mmHg 11%
    22:00 +36°C° 0 mm 3 mps 712 mmHg 12%
    23:00 +35°C° 0 mm 3 mps 713 mmHg 13%

    22 April, Monday

    Time Temperature Precipitation Wind Pressure Humidity
    00:00 +34°C° 0 mm 2 mps 712 mmHg 14%
    01:00 +34°C° 0 mm 2 mps 712 mmHg 15%
    02:00 +32°C° 0 mm 1 mps 711 mmHg 16%
    03:00 +32°C° 0 mm 1 mps 711 mmHg 17%
    04:00 +31°C° 0 mm 1 mps 711 mmHg 17%
    05:00 +28°C° 0 mm 0 mps 712 mmHg 18%
    06:00 +32°C° 0 mm 1 mps 712 mmHg 16%
    07:00 +34°C° 0 mm 1 mps 713 mmHg 15%
    08:00 +37°C° 0 mm 2 mps 714 mmHg 13%
    09:00 +38°C° 0 mm 2 mps 714 mmHg 12%
    10:00 +40°C° 0 mm 2 mps 714 mmHg 10%
    11:00 +42°C° 0 mm 1 mps 714 mmHg 9%
    12:00 +42°C° 0 mm 2 mps 714 mmHg 8%
    13:00 +43°C° 0 mm 2 mps 713 mmHg 8%
    14:00 +43°C° 0 mm 2 mps 712 mmHg 7%
    15:00 +44°C° 0 mm 3 mps 712 mmHg 7%
    16:00 +43°C° 0 mm 3 mps 712 mmHg 7%
    17:00 +43°C° 0 mm 3 mps 712 mmHg 8%
    18:00 +42°C° 0 mm 3 mps 712 mmHg 8%
    19:00 +39°C° 0 mm 2 mps 712 mmHg 9%
    20:00 +38°C° 0 mm 2 mps 713 mmHg 10%
    21:00 +37°C° 0 mm 2 mps 713 mmHg 10%
    22:00 +36°C° 0 mm 1 mps 713 mmHg 11%
    23:00 +35°C° 0 mm 1 mps 713 mmHg 11%

    23 April, Tuesday

    Time Temperature Precipitation Wind Pressure Humidity
    00:00 +32°C° 0 mm 0 mps 712 mmHg 12%
    01:00 +32°C° 0 mm 0 mps 712 mmHg 12%
    02:00 +31°C° 0 mm 0 mps 711 mmHg 13%
    03:00 +33°C° 0 mm 1 mps 712 mmHg 13%
    04:00 +32°C° 0 mm 2 mps 712 mmHg 13%
    05:00 +32°C° 0 mm 2 mps 712 mmHg 14%
    06:00 +34°C° 0 mm 3 mps 713 mmHg 13%
    07:00 +36°C° 0 mm 3 mps 714 mmHg 11%
    08:00 +38°C° 0 mm 4 mps 715 mmHg 10%
    09:00 +39°C° 0 mm 3 mps 715 mmHg 9%
    10:00 +42°C° 0 mm 3 mps 715 mmHg 8%
    11:00 +44°C° 0 mm 3 mps 715 mmHg 7%
    12:00 +44°C° 0 mm 3 mps 714 mmHg 7%
    13:00 +45°C° 0 mm 3 mps 713 mmHg 7%
    14:00 +45°C° 0 mm 3 mps 713 mmHg 6%
    15:00 +45°C° 0 mm 3 mps 712 mmHg 7%
    16:00 +44°C° 0 mm 3 mps 712 mmHg 7%
    17:00 +44°C° 0 mm 4 mps 712 mmHg 7%
    18:00 +43°C° 0 mm 4 mps 712 mmHg 8%
    19:00 +42°C° 0 mm 4 mps 713 mmHg 8%
    20:00 +41°C° 0 mm 4 mps 713 mmHg 9%
    21:00 +39°C° 0 mm 3 mps 713 mmHg 10%
    22:00 +38°C° 0 mm 3 mps 713 mmHg 10%
    23:00 +37°C° 0 mm 3 mps 713 mmHg 11%
    Show more